DEMI

Last updated on Wed Mar 16 2022 00:02:06 GMT+0000 (Coordinated Universal Time)

1 45916U 98067RP 22072.91857235 .24906067 12547-4 80547-3 0 9992 2 45916 51.6289 33.9203 0003486 286.0441 74.2534 16.44777730 95076

Satellite not in orbit